Content
SEND FEEDBACK

Daily
Averages
Monthly
Summary
Russia

BEZENCHUK, RUSSIA


Home > Europe > Russia
Elevation: 144 feet     Latitude: 53 15N     Longitude: 050 27E

WEATHER
 
SELECT A DAY
Number of Records: 190,484;   Date Range: 3/24/97 - 7/29/14
 
SHARE

PRINT THIS DATA

[ ← Previous Day ]
WEATHER ALMANAC - FEBRUARY 13, 2013
[ Next Day → ]
[ °C ]   °F
Weather ElementAverageHighLow
Temperature13 °F24 °F (4:00 pm)2 °F (7:00 am)
Dewpoint5.7 °F11 °F (4:00 pm)1 °F (7:00 am)
Humidity72.3 %94 % (10:00 am)43 % (1:00 pm)
Barometer30.54 in30.60 in (7:00 pm)30.51 in (12:30 am)
Wind Speed6 mph8.9 mph (12:30 am)
Weather ElementAverage
Visibility6 mi
Wind DirectionE (84.4 °)

Weather ElementTotal
Precipitation---
Heating Degree Days52 (Base 65)
Averaged from 55 records on February 13, 2013
WEATHER CONDITIONS BREAKOUT
WIND DIRECTION BREAKOUT
WEATHER BY HOUR - FEBRUARY 13, 2013
[ °C ]   °F
Local TimeTemperatureDewpointHumidityBarometerVisibilityWind DirectionWind SpeedGust SpeedPrecipitationEventsConditions
12:30 AM12.2 °F6.8 °F79 %30.51 inESE (110°)8.9 mphClear
1:00 AM6.0 °F5.0 °F91 %30.58 in6.0 miCalmClear
1:00 AM12.2 °F6.8 °F79 %30.51 inEast (90°)6.7 mphClear
1:30 AM12.2 °F6.8 °F79 %30.51 inEast (90°)8.9 mphClear
2:00 AM12.2 °F6.8 °F79 %30.51 inEast (100°)6.7 mphClear
2:30 AM10.4 °F5.0 °F79 %30.51 inESE (120°)8.9 mphClear
3:00 AM10.4 °F5.0 °F79 %30.51 inEast (100°)4.5 mphClear
3:30 AM14.0 °F6.8 °F73 %30.51 inEast (90°)4.5 mphClear
4:00 AM5.0 °F4.0 °F90 %30.58 in6.0 miCalmClear
4:00 AM10.4 °F5.0 °F79 %30.51 inEast (100°)6.7 mphClear
4:30 AM12.2 °F6.8 °F79 %30.51 inEast (100°)8.9 mphClear
5:00 AM12.2 °F6.8 °F79 %30.51 inESE (110°)6.7 mphClear
5:30 AM8.6 °F3.2 °F79 %30.51 inEast (90°)6.7 mphClear
6:00 AM8.6 °F5.0 °F85 %30.51 inEast (80°)4.5 mphClear
6:30 AM8.6 °F3.2 °F79 %30.51 inENE (70°)6.7 mphClear
7:00 AM2.0 °F1.0 °F92 %30.58 in6.0 miCalmClear
7:00 AM8.6 °F3.2 °F79 %30.51 inEast (80°)8.9 mphClear
7:30 AM6.8 °F3.2 °F85 %30.51 inENE (60°)8.9 mphClear
8:00 AM6.8 °F3.2 °F85 %30.51 inEast (80°)8.9 mphClear
8:30 AM6.8 °F3.2 °F85 %30.54 inEast (90°)6.7 mphClear
9:00 AM6.8 °F3.2 °F85 %30.54 inEast (80°)6.7 mphClear
9:30 AM8.6 °F5.0 °F85 %30.54 inNE (50°)6.7 mphClear
10:00 AM9.0 °F8.0 °F94 %30.59 in6.0 miCalmClear
10:00 AM8.6 °F3.2 °F79 %30.54 inENE (70°)6.7 mphClear
10:30 AM10.4 °F3.2 °F73 %30.54 inENE (60°)8.9 mphClear
11:00 AM12.2 °F5.0 °F73 %30.54 inENE (70°)6.7 mphClear
11:30 AM14.0 °F5.0 °F67 %30.54 inENE (70°)6.7 mphClear
12:00 PM15.8 °F6.8 °F68 %30.54 inEast (80°)6.7 mphClear
12:30 PM17.6 °F6.8 °F63 %30.54 inEast (80°)4.5 mphClear
1:00 PM21.0 °F8.0 °F43 %30.59 in6.0 miSE (130°)6.7 mphClear
1:00 PM19.4 °F8.6 °F63 %30.54 inEast (80°)6.7 mphClear
1:30 PM21.2 °F8.6 °F58 %30.54 inEast (100°)6.7 mphClear
2:00 PM21.2 °F8.6 °F58 %30.54 inEast (100°)6.7 mphClear
2:30 PM21.2 °F8.6 °F58 %30.54 inEast (100°)6.7 mphClear
3:00 PM23.0 °F8.6 °F54 %30.54 inEast (100°)6.7 mphClear
3:30 PM23.0 °F8.6 °F54 %30.54 inESE (110°)6.7 mphClear
4:00 PM24.0 °F11.0 °F43 %30.58 in6.0 miSE (130°)4.5 mphClear
4:00 PM23.0 °F8.6 °F54 %30.54 inEast (100°)4.5 mphClear
4:30 PM21.2 °F8.6 °F58 %30.54 inEast (90°)4.5 mphClear
5:00 PM21.2 °F8.6 °F58 %30.54 inEast (80°)4.5 mphClear
5:30 PM17.6 °F6.8 °F63 %30.54 inEast (80°)6.7 mphClear
6:00 PM14.0 °F5.0 °F67 %30.54 inENE (70°)6.7 mphClear
6:30 PM14.0 °F5.0 °F67 %30.54 inNE (50°)6.7 mphClear
7:00 PM18.0 °F8.0 °F52 %30.60 in6.0 miNE (50°)4.5 mphClear
7:00 PM12.2 °F3.2 °F67 %30.54 inENE (60°)6.7 mphClear
7:30 PM12.2 °F5.0 °F73 %30.54 inENE (70°)6.7 mphClear
8:00 PM10.4 °F3.2 °F73 %30.54 inENE (60°)6.7 mphClear
8:30 PM12.2 °F5.0 °F73 %30.54 inENE (70°)6.7 mphClear
9:00 PM12.2 °F3.2 °F67 %30.54 inENE (70°)6.7 mphClear
9:30 PM12.2 °F5.0 °F73 %30.54 inENE (70°)6.7 mphClear
10:00 PM7.0 °F4.0 °F79 %30.59 in6.0 miCalm
10:00 PM12.2 °F5.0 °F73 %30.54 inEast (80°)6.7 mphClear
10:30 PM12.2 °F5.0 °F73 %30.54 inENE (70°)4.5 mphClear
11:00 PM12.2 °F5.0 °F73 %30.54 inEast (90°)6.7 mphClear
11:30 PM10.4 °F5.0 °F79 %30.54 inEast (90°)6.7 mphClear
Hourly data recorded from UWWW, located miles away from Bezenchuk, Russia







STORIES FROM OUR PARTNERS